WIF850 ENSK-ENSG

Flight info

Callsign WIF850
Flight time N/A
Altitude 26000
Route APTAB DCT EMKIN DCT LUTUR DCT EVNAN
Aircraft DH8B/M-SDFGR/S

Departure

Time 2026-04-16 07:58
Airport Stokmarknes Airport, Skagen (ENSK)

Arrival

Time N/A
Airport Sogndal Airport, Haukåsen (ENSG)
Time Latitude Longitude Altitude Speed Heading
2026-04-16 07:50 68.57985 15.03122 18 ft 0 kts 89°
2026-04-16 07:55 68.57996 15.03188 19 ft 11 kts 31°
2026-04-16 07:55 68.58072 15.03072 17 ft 22 kts 266°
2026-04-16 07:56 68.58076 15.02609 17 ft 25 kts 272°
2026-04-16 07:56 68.58080 15.02118 19 ft 26 kts 271°
2026-04-16 07:56 68.58085 15.01598 17 ft 28 kts 271°
2026-04-16 07:56 68.58090 15.01186 16 ft 19 kts 270°
2026-04-16 07:57 68.58091 15.01013 16 ft 7 kts 95°
2026-04-16 07:57 68.58091 15.01072 16 ft 1 kts 91°
2026-04-16 07:57 68.58080 15.02201 19 ft 110 kts 91°
2026-04-16 07:57 68.58051 15.04790 242 ft 153 kts 92°
2026-04-16 07:58 68.57979 15.07816 786 ft 168 kts 104°
2026-04-16 07:58 68.57324 15.10646 1152 ft 192 kts 142°
2026-04-16 07:58 68.56031 15.11827 1594 ft 205 kts 181°
2026-04-16 07:58 68.54706 15.10541 2106 ft 211 kts 218°
2026-04-16 07:59 68.53902 15.07218 2627 ft 215 kts 256°
2026-04-16 07:59 68.53948 15.03425 3125 ft 217 kts 291°
2026-04-16 07:59 68.54157 15.02194 3302 ft 217 kts 303°
2026-04-16 07:59 68.55042 14.99846 3754 ft 216 kts 334°
2026-04-16 08:00 68.56497 14.98947 4297 ft 216 kts 358°
2026-04-16 08:00 68.57999 14.98766 4831 ft 217 kts 359°
2026-04-16 08:00 68.59520 14.98598 5366 ft 219 kts 359°
2026-04-16 08:00 68.61026 14.98443 5885 ft 220 kts 359°
2026-04-16 08:01 68.62572 14.98298 6399 ft 222 kts 359°
2026-04-16 08:01 68.64128 14.98160 6937 ft 224 kts 359°
2026-04-16 08:01 68.65692 14.98040 7451 ft 225 kts 359°
2026-04-16 08:01 68.67250 14.97942 7975 ft 227 kts 359°
2026-04-16 08:02 68.68832 14.97851 8497 ft 227 kts 359°
2026-04-16 08:02 68.72016 14.97676 9569 ft 229 kts 359°
2026-04-16 08:02 68.73594 14.97601 10111 ft 230 kts 359°
2026-04-16 08:03 68.75203 14.97541 10620 ft 231 kts 359°
2026-04-16 08:03 68.76813 14.97487 11114 ft 232 kts 359°
2026-04-16 08:03 68.78437 14.97471 11623 ft 232 kts 359°
2026-04-16 08:03 68.80042 14.97476 12134 ft 233 kts 359°
2026-04-16 08:04 68.81669 14.97499 12657 ft 234 kts 359°
2026-04-16 08:04 68.83302 14.97534 13189 ft 235 kts 359°
2026-04-16 08:04 68.84941 14.97600 13730 ft 235 kts 359°
2026-04-16 08:04 68.86577 14.97688 14257 ft 235 kts 359°
2026-04-16 08:05 68.88216 14.97806 14735 ft 235 kts 359°
2026-04-16 08:05 68.89840 14.97933 15213 ft 237 kts 359°
2026-04-16 08:05 68.91488 14.98075 15704 ft 237 kts 359°
2026-04-16 08:05 68.93144 14.98233 16202 ft 238 kts 359°
2026-04-16 08:06 68.94808 14.98405 16704 ft 240 kts 359°
2026-04-16 08:06 68.96483 14.98591 17218 ft 241 kts 359°
2026-04-16 08:06 68.98165 14.98791 17741 ft 242 kts 359°
2026-04-16 08:06 68.99860 14.99004 18270 ft 244 kts 359°
2026-04-16 08:07 69.01540 14.99228 18775 ft 245 kts 359°
2026-04-16 08:07 69.03249 14.99474 19243 ft 246 kts 359°
2026-04-16 08:07 69.04967 14.99729 19722 ft 247 kts 359°
2026-04-16 08:07 69.06690 14.99990 20207 ft 248 kts 359°
2026-04-16 08:08 69.08415 15.00259 20700 ft 249 kts 359°
2026-04-16 08:08 69.10149 15.00536 21201 ft 250 kts 359°
2026-04-16 08:08 69.11891 15.00824 21712 ft 251 kts 359°
2026-04-16 08:08 69.13638 15.01124 22232 ft 252 kts 359°
2026-04-16 08:09 69.15388 15.01431 22760 ft 253 kts 359°
2026-04-16 08:09 69.17124 15.01744 23289 ft 254 kts 359°
2026-04-16 08:09 69.18892 15.02073 23834 ft 254 kts 359°
2026-04-16 08:09 69.20661 15.02410 24301 ft 255 kts 359°
2026-04-16 08:10 69.22446 15.02755 24766 ft 256 kts 359°
2026-04-16 08:10 69.24232 15.03103 25235 ft 257 kts 359°
2026-04-16 08:10 69.26026 15.03460 25710 ft 258 kts 359°
2026-04-16 08:10 69.27792 15.03817 26173 ft 258 kts 359°
2026-04-16 08:11 69.29626 15.04195 26306 ft 270 kts 359°
2026-04-16 08:11 69.31539 15.04593 26337 ft 281 kts 360°
2026-04-16 08:11 69.33524 15.05018 26341 ft 290 kts
2026-04-16 08:11 69.35560 15.05469 26346 ft 295 kts
2026-04-16 08:12 69.37609 15.05934 26342 ft 295 kts
2026-04-16 08:12 69.38962 15.06244 26339 ft 295 kts
2026-04-16 08:12 69.41015 15.06721 26334 ft 295 kts
2026-04-16 08:12 69.43067 15.07203 26334 ft 295 kts
2026-04-16 08:13 69.45118 15.07688 26328 ft 295 kts
2026-04-16 08:13 69.47167 15.08173 26327 ft 295 kts
2026-04-16 08:13 69.49213 15.08662 26321 ft 295 kts
2026-04-16 08:13 69.51259 15.09155 26325 ft 295 kts
2026-04-16 08:14 69.53284 15.09647 26326 ft 295 kts
2026-04-16 08:14 69.55327 15.10146 26323 ft 295 kts
2026-04-16 08:14 69.57381 15.10654 26322 ft 295 kts
2026-04-16 08:14 69.59426 15.11162 26324 ft 295 kts
2026-04-16 08:15 69.61466 15.11675 26323 ft 295 kts
2026-04-16 08:15 69.63495 15.12189 26325 ft 295 kts
2026-04-16 08:15 69.65539 15.12711 26322 ft 294 kts
2026-04-16 08:15 69.67588 15.13237 26322 ft 294 kts
2026-04-16 08:16 69.69632 15.13767 26323 ft 294 kts
2026-04-16 08:16 69.71675 15.14300 26325 ft 294 kts
2026-04-16 08:16 69.73714 15.14837 26323 ft 294 kts
2026-04-16 08:16 69.75729 15.15371 26323 ft 294 kts
2026-04-16 08:17 69.77775 15.15919 26319 ft 294 kts
2026-04-16 08:17 69.79814 15.16473 26324 ft 294 kts
2026-04-16 08:17 69.81851 15.17031 26317 ft 294 kts
2026-04-16 08:17 69.83886 15.17589 26321 ft 294 kts
2026-04-16 08:18 69.85925 15.18151 26317 ft 294 kts
2026-04-16 08:19 70.00142 15.22173 26309 ft 293 kts
2026-04-16 08:20 70.02180 15.22767 26306 ft 293 kts
2026-04-16 08:20 70.04212 15.23362 26310 ft 293 kts
2026-04-16 08:20 70.06248 15.23964 26307 ft 293 kts
2026-04-16 08:20 70.08280 15.24568 26308 ft 293 kts
2026-04-16 08:21 70.10289 15.25170 26309 ft 293 kts
2026-04-16 08:21 70.12323 15.25783 26312 ft 293 kts
2026-04-16 08:21 70.14351 15.26397 26305 ft 293 kts
2026-04-16 08:21 70.16386 15.27020 26308 ft 293 kts
2026-04-16 08:22 70.18416 15.27648 26307 ft 293 kts
2026-04-16 08:22 70.20444 15.28275 26307 ft 293 kts
2026-04-16 08:22 70.22477 15.28907 26305 ft 293 kts
2026-04-16 08:22 70.24482 15.29536 26308 ft 293 kts
2026-04-16 08:23 70.26515 15.30175 26306 ft 293 kts
2026-04-16 08:23 70.28541 15.30815 26308 ft 293 kts
2026-04-16 08:23 70.30566 15.31459 26307 ft 293 kts
2026-04-16 08:23 70.32594 15.32106 26308 ft 292 kts
2026-04-16 08:24 70.34621 15.32758 26306 ft 292 kts
2026-04-16 08:24 70.36642 15.33411 26309 ft 292 kts
2026-04-16 08:24 70.38667 15.34069 26305 ft 292 kts
2026-04-16 08:24 70.40663 15.34721 26302 ft 292 kts
2026-04-16 08:25 70.42685 15.35385 26301 ft 292 kts
2026-04-16 08:25 70.44709 15.36053 26303 ft 292 kts
2026-04-16 08:25 70.46728 15.36723 26304 ft 292 kts
2026-04-16 08:25 70.48757 15.37399 26304 ft 292 kts
2026-04-16 08:26 70.50785 15.38078 26302 ft 292 kts
2026-04-16 08:26 70.52776 15.38747 26304 ft 292 kts
2026-04-16 08:26 70.54802 15.39433 26305 ft 292 kts
2026-04-16 08:26 70.56822 15.40121 26302 ft 292 kts
2026-04-16 08:27 70.58846 15.40812 26304 ft 292 kts
2026-04-16 08:27 70.60862 15.41503 26302 ft 292 kts
2026-04-16 08:27 70.62881 15.42199 26303 ft 292 kts
2026-04-16 08:27 70.64904 15.42900 26305 ft 291 kts
2026-04-16 08:28 70.66898 15.43595 26301 ft 292 kts
2026-04-16 08:28 70.68915 15.44301 26307 ft 291 kts
2026-04-16 08:28 70.70937 15.45012 26302 ft 291 kts
2026-04-16 08:28 70.72952 15.45722 26303 ft 291 kts
2026-04-16 08:29 70.74939 15.46425 26303 ft 291 kts
2026-04-16 08:29 70.76955 15.47142 26302 ft 291 kts
2026-04-16 08:29 70.78965 15.47860 26302 ft 291 kts
2026-04-16 08:29 70.80978 15.48583 26303 ft 291 kts
2026-04-16 08:30 70.82991 15.49310 26304 ft 291 kts
2026-04-16 08:30 70.85005 15.50039 26301 ft 291 kts
2026-04-16 08:30 70.87019 15.50772 26303 ft 291 kts
2026-04-16 08:30 70.89034 15.51510 26304 ft 291 kts
2026-04-16 08:31 70.91023 15.52241 26306 ft 291 kts
2026-04-16 08:31 70.93032 15.52984 26293 ft 291 kts
2026-04-16 08:31 70.95045 15.53733 26287 ft 290 kts
2026-04-16 08:31 70.97037 15.54476 26303 ft 290 kts
2026-04-16 08:32 70.99052 15.55232 26302 ft 290 kts
2026-04-16 08:32 71.01061 15.55989 26307 ft 290 kts
2026-04-16 08:32 71.03043 15.56740 26304 ft 290 kts
2026-04-16 08:32 71.05049 15.57504 26305 ft 290 kts
2026-04-16 08:33 71.07055 15.58271 26306 ft 290 kts
2026-04-16 08:33 71.09058 15.59041 26306 ft 290 kts
2026-04-16 08:33 71.11065 15.59817 26307 ft 290 kts
2026-04-16 08:33 71.13064 15.60593 26299 ft 289 kts
2026-04-16 08:34 71.15048 15.61366 26299 ft 289 kts
2026-04-16 08:34 71.17047 15.62148 26301 ft 289 kts
2026-04-16 08:34 71.19045 15.62934 26302 ft 289 kts
2026-04-16 08:34 71.21043 15.63723 26296 ft 289 kts
2026-04-16 08:35 71.23045 15.64518 26303 ft 289 kts
2026-04-16 08:35 71.25014 15.65302 26300 ft 289 kts
2026-04-16 08:35 71.27007 15.66099 26301 ft 289 kts
2026-04-16 08:35 71.28999 15.66902 26306 ft 288 kts
2026-04-16 08:36 71.31000 15.67711 26301 ft 288 kts
2026-04-16 08:36 71.32975 15.68513 26294 ft 288 kts
2026-04-16 08:36 71.34973 15.69328 26294 ft 288 kts
2026-04-16 08:36 71.36962 15.70143 26300 ft 288 kts
2026-04-16 08:37 71.38949 15.70962 26297 ft 288 kts
2026-04-16 08:37 71.40938 15.71784 26296 ft 288 kts
2026-04-16 08:37 71.42924 15.72610 26299 ft 288 kts
2026-04-16 08:37 71.44912 15.73440 26304 ft 288 kts
2026-04-16 08:38 71.46897 15.74274 26297 ft 288 kts
2026-04-16 08:38 71.48857 15.75101 26295 ft 288 kts
2026-04-16 08:38 71.50847 15.75945 26297 ft 288 kts
2026-04-16 08:38 71.52830 15.76789 26300 ft 287 kts
2026-04-16 08:39 71.54822 15.77642 26297 ft 287 kts
2026-04-16 08:39 71.56785 15.78486 26297 ft 287 kts
2026-04-16 08:39 71.58764 15.79341 26298 ft 287 kts
2026-04-16 08:39 71.60743 15.80199 26298 ft 287 kts
2026-04-16 08:40 71.62723 15.81063 26294 ft 287 kts
2026-04-16 08:40 71.64698 15.81929 26297 ft 287 kts
2026-04-16 08:40 71.66679 15.82801 26291 ft 287 kts
2026-04-16 08:40 71.68659 15.83678 26296 ft 286 kts
2026-04-16 08:41 71.70633 15.84557 26298 ft 286 kts
2026-04-16 08:41 71.72611 15.85441 26296 ft 286 kts
2026-04-16 08:41 71.74557 15.86315 26297 ft 286 kts
2026-04-16 08:41 71.76534 15.87206 26296 ft 286 kts
2026-04-16 08:42 71.78509 15.88100 26292 ft 286 kts
2026-04-16 08:42 71.80486 15.89000 26297 ft 286 kts
2026-04-16 08:42 71.82433 15.89890 26295 ft 286 kts
2026-04-16 08:42 71.84403 15.90796 26295 ft 286 kts
2026-04-16 08:43 71.86369 15.91704 26296 ft 285 kts
2026-04-16 08:43 71.88336 15.92617 26292 ft 285 kts
2026-04-16 08:43 71.90303 15.93534 26291 ft 285 kts
2026-04-16 08:43 71.92277 15.94457 26293 ft 285 kts
2026-04-16 08:44 71.94219 15.95370 26293 ft 285 kts
2026-04-16 08:44 71.96181 15.96297 26293 ft 285 kts
2026-04-16 08:44 71.98142 15.97228 26297 ft 285 kts
2026-04-16 08:44 72.00107 15.98167 26290 ft 285 kts
2026-04-16 08:45 72.02069 15.99106 26289 ft 285 kts
2026-04-16 08:45 72.04031 16.00050 26286 ft 284 kts
2026-04-16 08:45 72.05990 16.00999 26290 ft 284 kts
2026-04-16 08:45 72.07927 16.01942 26290 ft 284 kts
2026-04-16 08:46 72.09880 16.02898 26284 ft 284 kts
2026-04-16 08:46 72.11843 16.03862 26287 ft 284 kts
2026-04-16 08:46 72.13796 16.04826 26283 ft 284 kts
2026-04-16 08:46 72.15753 16.05797 26288 ft 284 kts
2026-04-16 08:47 72.17702 16.06768 26292 ft 284 kts
2026-04-16 08:47 72.18999 16.07418 26291 ft 284 kts
2026-04-16 08:47 72.20293 16.08070 26294 ft 283 kts